Overview Statistics Trail Chart Weather Telemetry Raw packets
 

This is the latest recevied weather packets stored in our database for station/object OE2WNL. If no packets are shown the sender has not sent any weather packets the latest 10 day(s).

<< 3 4 5 6 7 8 >>
Time Temp. Humidity Pressure Rain* Wind** Luminosity Snow
1788534420 30.56° C 30% 1012.6 hPa 0 mm - - -
1788534119 30.56° C 31% 1012.8 hPa 0 mm - - -
1788533819 30.56° C 26% 1012.7 hPa 0 mm - - -
1788533509 30° C 28% 1012.9 hPa 0 mm - - -
1788533200 30.56° C 29% 1013 hPa 0 mm - - -
1788532890 31.11° C 28% 1012.7 hPa 0 mm - - -
1788532580 30.56° C 25% 1013 hPa 0 mm - - -
1788532280 30° C 27% 1013.2 hPa 0 mm - - -
1788531970 30.56° C 26% 1013.2 hPa 0 mm - - -
1788531670 31.11° C 26% 1013 hPa 0 mm - - -
1788531360 30.56° C 26% 1013.2 hPa 0 mm - - -
1788531060 30° C 25% 1013.2 hPa 0 mm - - -
1788530750 30° C 26% 1013.4 hPa 0 mm - - -
1788530449 30° C 27% 1013.4 hPa 0 mm - - -
1788530139 30° C 28% 1013.6 hPa 0 mm - - -
1788529829 29.44° C 29% 1013.8 hPa 0 mm - - -
1788529519 29.44° C 29% 1013.9 hPa 0 mm - - -
1788529220 29.44° C 30% 1013.9 hPa 0 mm - - -
1788528919 29.44° C 30% 1013.9 hPa 0 mm - - -
1788528610 29.44° C 26% 1014 hPa 0 mm - - -
1788528309 29.44° C 30% 1014 hPa 0 mm - - -
1788528009 29.44° C 29% 1014.2 hPa 0 mm - - -
1788527709 29.44° C 31% 1014.2 hPa 0 mm - - -
1788527409 29.44° C 29% 1014.2 hPa 0 mm - - -
1788527109 28.89° C 29% 1014.4 hPa 0 mm - - -

* Rain latest hour (hover to see other rain measurements)
** Current wind speed in m/s (hover to see current wind gust speed)